Year,Month,Day,Hour,Minute,Value (Times are PST for insolation in W/m^2)
2007,08,05,00,00,0.00
2007,08,05,00,01,0.00
2007,08,05,00,02,0.00
2007,08,05,00,03,0.00
2007,08,05,00,04,0.00
2007,08,05,00,05,0.00
2007,08,05,00,06,0.00
2007,08,05,00,07,0.00
2007,08,05,00,08,0.00
2007,08,05,00,09,0.00
2007,08,05,00,10,0.00
2007,08,05,00,11,0.00
2007,08,05,00,12,0.00
2007,08,05,00,13,0.00
2007,08,05,01,02,0.00
2007,08,05,01,03,0.00
2007,08,05,01,04,0.00
2007,08,05,01,05,0.00
2007,08,05,01,06,0.00
2007,08,05,01,07,0.00
2007,08,05,01,08,0.00
2007,08,05,01,09,0.00
2007,08,05,01,10,0.00
2007,08,05,01,11,0.00
2007,08,05,01,12,0.00
2007,08,05,01,13,0.00
2007,08,05,01,14,0.00
2007,08,05,01,15,0.00
2007,08,05,01,16,0.00
2007,08,05,01,17,0.00
2007,08,05,01,18,0.00
2007,08,05,01,19,0.00
2007,08,05,01,20,0.00
2007,08,05,01,21,0.00
2007,08,05,01,22,0.00
2007,08,05,01,23,0.00
2007,08,05,01,24,0.00
2007,08,05,01,25,0.00
2007,08,05,01,26,0.00
2007,08,05,01,27,0.00
2007,08,05,01,28,0.00
2007,08,05,01,29,0.00
2007,08,05,01,30,0.00
2007,08,05,01,31,0.00
2007,08,05,01,32,0.00
2007,08,05,01,33,0.00
2007,08,05,01,34,0.00
2007,08,05,01,35,0.00
2007,08,05,01,36,0.00
2007,08,05,01,37,0.00
2007,08,05,01,38,0.00
2007,08,05,01,39,0.00
2007,08,05,01,40,0.00
2007,08,05,01,41,0.00
2007,08,05,01,42,0.00
2007,08,05,01,43,0.00
2007,08,05,01,44,0.00
2007,08,05,01,45,0.00
2007,08,05,01,46,0.00
2007,08,05,01,47,0.00
2007,08,05,01,48,0.00
2007,08,05,01,49,0.00
2007,08,05,01,50,0.00
2007,08,05,01,51,0.00
2007,08,05,01,52,0.00
2007,08,05,01,53,0.00
2007,08,05,01,54,0.00
2007,08,05,01,55,0.00
2007,08,05,01,56,0.00
2007,08,05,01,57,0.00
2007,08,05,01,58,0.00
2007,08,05,01,59,0.00
2007,08,05,02,00,0.00
2007,08,05,02,01,0.00
2007,08,05,02,02,0.00
2007,08,05,02,03,0.00
2007,08,05,02,04,0.00
2007,08,05,02,05,0.00
2007,08,05,02,06,0.00
2007,08,05,02,07,0.00
2007,08,05,02,08,0.00
2007,08,05,02,09,0.00
2007,08,05,02,10,0.00
2007,08,05,02,11,0.00
2007,08,05,02,12,0.00
2007,08,05,02,13,0.00
2007,08,05,02,14,0.00
2007,08,05,02,15,0.00
2007,08,05,02,16,0.00
2007,08,05,02,17,0.00
2007,08,05,02,18,0.00
2007,08,05,02,19,0.00
2007,08,05,02,20,0.00
2007,08,05,02,21,0.00
2007,08,05,02,22,0.00
2007,08,05,02,23,0.00
2007,08,05,02,24,0.00
2007,08,05,02,25,0.00
2007,08,05,02,26,0.00
2007,08,05,02,27,0.00
2007,08,05,02,28,0.00
2007,08,05,02,29,0.00
2007,08,05,02,30,0.00
2007,08,05,02,31,0.00
2007,08,05,02,32,0.00
2007,08,05,02,33,0.00
2007,08,05,02,34,0.00
2007,08,05,02,35,0.00
2007,08,05,02,36,0.00
2007,08,05,02,37,0.00
2007,08,05,02,38,0.00
2007,08,05,02,39,0.00
2007,08,05,02,40,0.00
2007,08,05,02,41,0.00
2007,08,05,02,42,0.00
2007,08,05,02,43,0.00
2007,08,05,02,44,0.00
2007,08,05,02,45,0.00
2007,08,05,02,46,0.00
2007,08,05,02,47,0.00
2007,08,05,02,48,0.00
2007,08,05,02,49,0.00
2007,08,05,02,50,0.00
2007,08,05,02,51,0.00
2007,08,05,02,52,0.00
2007,08,05,02,53,0.00
2007,08,05,02,54,0.00
2007,08,05,02,55,0.00
2007,08,05,02,56,0.00
2007,08,05,02,57,0.00
2007,08,05,02,58,0.00
2007,08,05,02,59,0.00
2007,08,05,03,00,0.00
2007,08,05,03,01,0.00
2007,08,05,03,02,0.00
2007,08,05,03,03,0.00
2007,08,05,03,04,0.00
2007,08,05,03,05,0.00
2007,08,05,03,06,0.00
2007,08,05,03,07,0.00
2007,08,05,03,08,0.00
2007,08,05,03,09,0.00
2007,08,05,03,10,0.00
2007,08,05,03,11,0.00
2007,08,05,03,12,0.00
2007,08,05,03,13,0.00
2007,08,05,03,14,0.00
2007,08,05,03,15,0.00
2007,08,05,03,16,0.00
2007,08,05,03,17,0.00
2007,08,05,03,18,0.00
2007,08,05,03,19,0.00
2007,08,05,03,20,0.00
2007,08,05,03,21,0.00
2007,08,05,03,22,0.00
2007,08,05,03,23,0.00
2007,08,05,03,24,0.00
2007,08,05,03,25,0.00
2007,08,05,03,26,0.00
2007,08,05,03,27,0.00
2007,08,05,03,28,0.00
2007,08,05,03,29,0.00
2007,08,05,03,30,0.00
2007,08,05,03,31,0.00
2007,08,05,03,32,0.00
2007,08,05,03,33,0.00
2007,08,05,03,34,0.00
2007,08,05,03,35,0.00
2007,08,05,03,36,0.00
2007,08,05,03,37,0.00
2007,08,05,03,38,0.00
2007,08,05,03,39,0.00
2007,08,05,03,40,0.00
2007,08,05,03,41,0.00
2007,08,05,03,42,0.00
2007,08,05,03,43,0.00
2007,08,05,03,44,0.00
2007,08,05,03,45,0.00
2007,08,05,03,46,0.00
2007,08,05,03,47,0.00
2007,08,05,03,48,0.00
2007,08,05,03,49,0.00
2007,08,05,03,50,0.00
2007,08,05,03,51,0.00
2007,08,05,03,52,0.00
2007,08,05,03,53,0.00
2007,08,05,03,54,0.00
2007,08,05,03,55,0.00
2007,08,05,03,56,0.00
2007,08,05,03,57,0.00
2007,08,05,03,58,0.00
2007,08,05,03,59,0.00
2007,08,05,04,00,0.00
2007,08,05,04,01,0.00
2007,08,05,04,02,0.00
2007,08,05,04,03,0.00
2007,08,05,04,04,0.00
2007,08,05,04,05,0.00
2007,08,05,04,06,0.00
2007,08,05,04,07,0.00
2007,08,05,04,08,0.00
2007,08,05,04,09,0.00
2007,08,05,04,10,0.00
2007,08,05,04,11,0.00
2007,08,05,04,12,0.00
2007,08,05,04,13,0.00
2007,08,05,04,14,0.00
2007,08,05,04,15,0.00
2007,08,05,04,16,0.00
2007,08,05,04,17,0.00
2007,08,05,04,18,0.00
2007,08,05,04,19,0.00
2007,08,05,04,20,0.00
2007,08,05,04,21,0.00
2007,08,05,04,22,0.00
2007,08,05,04,23,0.00
2007,08,05,04,24,0.00
2007,08,05,04,25,0.00
2007,08,05,04,26,0.00
2007,08,05,04,27,0.00
2007,08,05,04,28,0.00
2007,08,05,04,29,0.00
2007,08,05,04,30,0.00
2007,08,05,04,31,0.00
2007,08,05,04,32,0.00
2007,08,05,04,33,0.00
2007,08,05,04,34,0.00
2007,08,05,04,35,0.00
2007,08,05,04,36,0.00
2007,08,05,04,37,0.00
2007,08,05,04,38,0.00
2007,08,05,04,39,0.00
2007,08,05,04,40,0.00
2007,08,05,04,41,0.00
2007,08,05,04,42,0.00
2007,08,05,04,43,0.00
2007,08,05,04,44,0.00
2007,08,05,04,45,0.00
2007,08,05,04,46,0.00
2007,08,05,04,47,0.00
2007,08,05,04,48,0.00
2007,08,05,04,49,0.00
2007,08,05,04,50,0.00
2007,08,05,04,51,0.00
2007,08,05,04,52,0.00
2007,08,05,04,53,0.00
2007,08,05,04,54,0.00
2007,08,05,04,55,0.00
2007,08,05,04,56,0.00
2007,08,05,04,57,0.00
2007,08,05,04,58,0.00
2007,08,05,04,59,0.00
2007,08,05,05,00,0.00
2007,08,05,05,01,0.00
2007,08,05,05,02,0.00
2007,08,05,05,03,0.00
2007,08,05,05,04,0.00
2007,08,05,05,05,0.00
2007,08,05,05,06,0.00
2007,08,05,05,07,0.00
2007,08,05,05,08,0.00
2007,08,05,05,09,0.00
2007,08,05,05,10,0.00
2007,08,05,05,11,0.00
2007,08,05,05,12,0.00
2007,08,05,05,13,0.00
2007,08,05,05,14,0.00
2007,08,05,05,15,0.00
2007,08,05,05,16,0.00
2007,08,05,05,17,0.00
2007,08,05,05,18,0.00
2007,08,05,05,19,0.00
2007,08,05,05,20,0.00
2007,08,05,05,21,0.00
2007,08,05,05,22,0.00
2007,08,05,05,23,0.00
2007,08,05,05,24,0.00
2007,08,05,05,25,0.00
2007,08,05,05,26,0.00
2007,08,05,05,27,0.00
2007,08,05,05,28,0.00
2007,08,05,05,29,0.00
2007,08,05,05,30,0.00
2007,08,05,05,31,0.00
2007,08,05,05,32,0.00
2007,08,05,05,33,0.00
2007,08,05,05,34,0.00
2007,08,05,05,35,0.00
2007,08,05,05,36,0.00
2007,08,05,05,37,0.00
2007,08,05,05,38,0.00
2007,08,05,05,39,0.00
2007,08,05,05,40,0.00
2007,08,05,05,41,0.00
2007,08,05,05,42,0.00
2007,08,05,05,43,0.00
2007,08,05,05,44,0.00
2007,08,05,05,45,0.00
2007,08,05,05,46,0.00
2007,08,05,05,47,0.00
2007,08,05,05,48,0.00
2007,08,05,05,49,0.00
2007,08,05,05,50,0.00
2007,08,05,05,51,0.00
2007,08,05,05,52,0.00
2007,08,05,05,53,0.00
2007,08,05,05,54,0.00
2007,08,05,05,55,0.00
2007,08,05,05,56,0.80
2007,08,05,05,57,5.00
2007,08,05,05,58,5.00
2007,08,05,05,59,5.00
2007,08,05,06,00,5.00
2007,08,05,06,01,5.00
2007,08,05,06,02,5.20
2007,08,05,06,03,7.00
2007,08,05,06,04,7.00
2007,08,05,06,05,7.00
2007,08,05,06,06,7.20
2007,08,05,06,07,9.00
2007,08,05,06,08,9.00
2007,08,05,06,09,9.00
2007,08,05,06,10,9.00
2007,08,05,06,11,9.20
2007,08,05,06,12,11.00
2007,08,05,06,13,11.00
2007,08,05,06,14,11.10
2007,08,05,06,15,12.00
2007,08,05,06,16,12.00
2007,08,05,06,17,12.00
2007,08,05,06,18,12.20
2007,08,05,06,19,14.00
2007,08,05,06,20,14.00
2007,08,05,06,21,14.00
2007,08,05,06,22,14.30
2007,08,05,06,23,16.00
2007,08,05,06,24,16.00
2007,08,05,06,25,16.00
2007,08,05,06,26,16.30
2007,08,05,06,27,18.00
2007,08,05,06,28,18.00
2007,08,05,06,29,18.00
2007,08,05,06,30,18.20
2007,08,05,06,31,19.00
2007,08,05,06,32,19.00
2007,08,05,06,33,19.00
2007,08,05,06,34,19.00
2007,08,05,06,35,19.20
2007,08,05,06,36,21.00
2007,08,05,06,37,21.00
2007,08,05,06,38,21.00
2007,08,05,06,39,21.00
2007,08,05,06,40,21.20
2007,08,05,06,41,23.00
2007,08,05,06,42,23.00
2007,08,05,06,43,23.00
2007,08,05,06,44,23.00
2007,08,05,06,45,23.20
2007,08,05,06,46,25.00
2007,08,05,06,47,25.00
2007,08,05,06,48,25.00
2007,08,05,06,49,25.00
2007,08,05,06,50,25.10
2007,08,05,06,51,26.00
2007,08,05,06,52,26.00
2007,08,05,06,53,26.00
2007,08,05,06,54,26.00
2007,08,05,06,55,26.00
2007,08,05,06,56,26.20
2007,08,05,06,57,28.00
2007,08,05,06,58,28.00
2007,08,05,06,59,28.00
2007,08,05,07,00,28.00
2007,08,05,07,01,28.00
2007,08,05,07,02,28.20
2007,08,05,07,03,30.00
2007,08,05,07,04,30.00
2007,08,05,07,05,30.00
2007,08,05,07,06,30.00
2007,08,05,07,07,30.30
2007,08,05,07,08,32.00
2007,08,05,07,09,32.00
2007,08,05,07,10,32.00
2007,08,05,07,11,32.00
2007,08,05,07,12,32.00
2007,08,05,07,13,32.10
2007,08,05,07,14,33.00
2007,08,05,07,15,33.00
2007,08,05,07,16,33.00
2007,08,05,07,17,33.00
2007,08,05,07,18,33.00
2007,08,05,07,19,33.00
2007,08,05,07,20,33.00
2007,08,05,07,21,33.30
2007,08,05,07,22,35.00
2007,08,05,07,23,35.00
2007,08,05,07,24,35.20
2007,08,05,07,25,37.00
2007,08,05,07,26,37.00
2007,08,05,07,27,37.00
2007,08,05,07,28,37.00
2007,08,05,07,29,37.00
2007,08,05,07,30,37.00
2007,08,05,07,31,37.00
2007,08,05,07,32,37.00
2007,08,05,07,33,37.30
2007,08,05,07,34,39.00
2007,08,05,07,35,39.00
2007,08,05,07,36,39.20
2007,08,05,07,37,40.30
2007,08,05,07,38,42.00
2007,08,05,07,39,43.70
2007,08,05,07,40,56.50
2007,08,05,07,41,74.50
2007,08,05,07,42,85.50
2007,08,05,07,43,136.90
2007,08,05,07,44,210.20
2007,08,05,07,45,241.50
2007,08,05,07,46,244.00
2007,08,05,07,47,244.90
2007,08,05,07,48,250.10
2007,08,05,07,49,251.70
2007,08,05,07,50,255.30
2007,08,05,07,51,257.40
2007,08,05,07,52,260.00
2007,08,05,07,53,260.60
2007,08,05,07,54,265.20
2007,08,05,07,55,267.20
2007,08,05,07,56,269.80
2007,08,05,07,57,274.30
2007,08,05,07,58,276.20
2007,08,05,07,59,278.40
2007,08,05,08,00,281.20
2007,08,05,08,01,283.70
2007,08,05,08,02,287.10
2007,08,05,08,03,288.50
2007,08,05,08,04,292.30
2007,08,05,08,05,295.20
2007,08,05,08,06,297.00
2007,08,05,08,07,297.60
2007,08,05,08,08,302.70
2007,08,05,08,09,306.20
2007,08,05,08,10,308.30
2007,08,05,08,11,311.20
2007,08,05,08,12,313.20
2007,08,05,08,13,315.40
2007,08,05,08,14,318.60
2007,08,05,08,15,322.20
2007,08,05,08,16,323.70
2007,08,05,08,17,327.40
2007,08,05,08,18,330.30
2007,08,05,08,19,332.70
2007,08,05,08,20,336.20
2007,08,05,08,21,338.40
2007,08,05,08,22,341.50
2007,08,05,08,23,345.30
2007,08,05,08,24,348.20
2007,08,05,08,25,350.20
2007,08,05,08,26,352.50
2007,08,05,08,27,355.30
2007,08,05,08,28,357.40
2007,08,05,08,29,360.20
2007,08,05,08,30,362.50
2007,08,05,08,31,366.30
2007,08,05,08,32,369.70
2007,08,05,08,33,373.40
2007,08,05,08,34,376.30
2007,08,05,08,35,378.40
2007,08,05,08,36,381.20
2007,08,05,08,37,383.00
2007,08,05,08,38,383.80
2007,08,05,08,39,388.70
2007,08,05,08,40,392.20
2007,08,05,08,41,394.40
2007,08,05,08,42,397.70
2007,08,05,08,43,401.20
2007,08,05,08,44,403.40
2007,08,05,08,45,406.20
2007,08,05,08,46,408.30
2007,08,05,08,47,411.50
2007,08,05,08,48,415.20
2007,08,05,08,49,417.30
2007,08,05,08,50,420.40
2007,08,05,08,51,424.20
2007,08,05,08,52,425.70
2007,08,05,08,53,429.40
2007,08,05,08,54,431.40
2007,08,05,08,55,434.20
2007,08,05,08,56,436.40
2007,08,05,08,57,439.60
2007,08,05,08,58,443.30
2007,08,05,08,59,445.10
2007,08,05,09,00,446.70
2007,08,05,09,01,450.30
2007,08,05,09,02,452.40
2007,08,05,09,03,455.30
2007,08,05,09,04,457.70
2007,08,05,09,05,461.10
2007,08,05,09,06,462.50
2007,08,05,09,07,466.30
2007,08,05,09,08,469.20
2007,08,05,09,09,471.50
2007,08,05,09,10,475.10
2007,08,05,09,11,476.50
2007,08,05,09,12,480.40
2007,08,05,09,13,483.30
2007,08,05,09,14,485.30
2007,08,05,09,15,487.30
2007,08,05,09,16,489.50
2007,08,05,09,17,492.70
2007,08,05,09,18,496.20
2007,08,05,09,19,497.30
2007,08,05,09,20,499.30
2007,08,05,09,21,501.30
2007,08,05,09,22,503.50
2007,08,05,09,23,506.70
2007,08,05,09,24,510.30
2007,08,05,09,25,513.20
2007,08,05,09,26,515.40
2007,08,05,09,27,519.10
2007,08,05,09,28,520.00
2007,08,05,09,29,520.70
2007,08,05,09,30,526.10
2007,08,05,09,31,527.30
2007,08,05,09,32,529.30
2007,08,05,09,33,531.50
2007,08,05,09,34,534.70
2007,08,05,09,35,538.30
2007,08,05,09,36,540.20
2007,08,05,09,37,541.70
2007,08,05,09,38,545.00
2007,08,05,09,39,545.30
2007,08,05,09,40,548.40
2007,08,05,09,41,552.00
2007,08,05,09,42,552.80
2007,08,05,09,43,557.50
2007,08,05,09,44,561.20
2007,08,05,09,45,563.20
2007,08,05,09,46,565.00
2007,08,05,09,47,569.80
2007,08,05,09,48,568.80
2007,08,05,09,49,573.30
2007,08,05,09,50,575.50
2007,08,05,09,51,578.00
2007,08,05,09,52,578.50
2007,08,05,09,53,582.30
2007,08,05,09,54,585.20
2007,08,05,09,55,587.20
2007,08,05,09,56,589.20
2007,08,05,09,57,591.30
2007,08,05,09,58,594.60
2007,08,05,09,59,598.10
2007,08,05,10,00,599.00
2007,08,05,10,01,599.40
2007,08,05,10,02,603.20
2007,08,05,10,03,605.40
2007,08,05,10,04,608.30
2007,08,05,10,05,610.30
2007,08,05,10,06,612.30
2007,08,05,10,07,615.30
2007,08,05,10,08,617.70
2007,08,05,10,09,621.20
2007,08,05,10,10,622.30
2007,08,05,10,11,624.30
2007,08,05,10,12,626.50
2007,08,05,10,13,629.20
2007,08,05,10,14,631.70
2007,08,05,10,15,635.00
2007,08,05,10,16,635.20
2007,08,05,10,17,636.70
2007,08,05,10,18,640.40
2007,08,05,10,19,643.20
2007,08,05,10,20,645.00
2007,08,05,10,21,645.70
2007,08,05,10,22,649.50
2007,08,05,10,23,652.20
2007,08,05,10,24,654.20
2007,08,05,10,25,656.00
2007,08,05,10,26,656.30
2007,08,05,10,27,659.30
2007,08,05,10,28,661.20
2007,08,05,10,29,663.50
2007,08,05,10,30,666.20
2007,08,05,10,31,668.20
2007,08,05,10,32,670.20
2007,08,05,10,33,671.50
2007,08,05,10,34,675.20
2007,08,05,10,35,677.30
2007,08,05,10,36,679.20
2007,08,05,10,37,680.00
2007,08,05,10,38,680.30
2007,08,05,10,39,682.70
2007,08,05,10,40,686.50
2007,08,05,10,41,689.00
2007,08,05,10,42,689.70
2007,08,05,10,43,693.20
2007,08,05,10,44,694.00
2007,08,05,10,45,694.30
2007,08,05,10,46,696.30
2007,08,05,10,47,698.30
2007,08,05,10,48,700.10
2007,08,05,10,49,701.50
2007,08,05,10,50,705.30
2007,08,05,10,51,707.20
2007,08,05,10,52,708.00
2007,08,05,10,53,708.70
2007,08,05,10,54,712.20
2007,08,05,10,55,714.00
2007,08,05,10,56,714.50
2007,08,05,10,57,717.00
2007,08,05,10,58,717.70
2007,08,05,10,59,721.10
2007,08,05,11,00,722.00
2007,08,05,11,01,722.70
2007,08,05,11,02,726.20
2007,08,05,11,03,728.00
2007,08,05,11,04,728.20
2007,08,05,11,05,729.20
2007,08,05,11,06,731.20
2007,08,05,11,07,733.70
2007,08,05,11,08,737.00
2007,08,05,11,09,737.00
2007,08,05,11,10,737.00
2007,08,05,11,11,737.80
2007,08,05,11,12,742.20
2007,08,05,11,13,744.20
2007,08,05,11,14,745.20
2007,08,05,11,15,747.20
2007,08,05,11,16,749.00
2007,08,05,11,17,749.50
2007,08,05,11,18,752.00
2007,08,05,11,19,752.70
2007,08,05,11,20,756.00
2007,08,05,11,21,756.30
2007,08,05,11,22,758.20
2007,08,05,11,23,759.30
2007,08,05,11,24,761.00
2007,08,05,11,25,761.20
2007,08,05,11,26,763.40
2007,08,05,11,27,765.80
2007,08,05,11,28,765.40
2007,08,05,11,29,768.20
2007,08,05,11,30,770.50
2007,08,05,11,31,773.00
2007,08,05,11,32,773.30
2007,08,05,11,33,775.00
2007,08,05,11,34,775.30
2007,08,05,11,35,777.40
2007,08,05,11,36,780.30
2007,08,05,11,37,782.20
2007,08,05,11,38,784.00
2007,08,05,11,39,784.30
2007,08,05,11,40,786.00
2007,08,05,11,41,786.20
2007,08,05,11,42,788.10
2007,08,05,11,43,789.30
2007,08,05,11,44,791.00
2007,08,05,11,45,791.30
2007,08,05,11,46,793.50
2007,08,05,11,47,796.20
2007,08,05,11,48,797.60
2007,08,05,11,49,795.50
2007,08,05,11,50,798.00
2007,08,05,11,51,798.30
2007,08,05,11,52,800.20
2007,08,05,11,53,802.10
2007,08,05,11,54,803.00
2007,08,05,11,55,803.50
2007,08,05,11,56,807.20
2007,08,05,11,57,808.80
2007,08,05,11,58,807.00
2007,08,05,11,59,807.30
2007,08,05,12,00,809.00
2007,08,05,12,01,809.00
2007,08,05,12,02,809.50
2007,08,05,12,03,814.00
2007,08,05,12,04,814.20
2007,08,05,12,05,816.10
2007,08,05,12,06,816.80
2007,08,05,12,07,816.00
2007,08,05,12,08,816.40
2007,08,05,12,09,818.70
2007,08,05,12,10,817.70
2007,08,05,12,11,821.30
2007,08,05,12,12,823.00
2007,08,05,12,13,823.10
2007,08,05,12,14,824.00
2007,08,05,12,15,824.00
2007,08,05,12,16,824.30
2007,08,05,12,17,826.20
2007,08,05,12,18,828.20
2007,08,05,12,19,829.70
2007,08,05,12,20,828.30
2007,08,05,12,21,830.00
2007,08,05,12,22,830.20
2007,08,05,12,23,831.20
2007,08,05,12,24,833.00
2007,08,05,12,25,833.30
2007,08,05,12,26,834.70
2007,08,05,12,27,833.30
2007,08,05,12,28,835.20
2007,08,05,12,29,836.80
2007,08,05,12,30,835.20
2007,08,05,12,31,837.10
2007,08,05,12,32,838.30
2007,08,05,12,33,840.00
2007,08,05,12,34,840.00
2007,08,05,12,35,839.70
2007,08,05,12,36,838.30
2007,08,05,12,37,840.30
2007,08,05,12,38,842.00
2007,08,05,12,39,842.20
2007,08,05,12,40,844.30
2007,08,05,12,41,846.00
2007,08,05,12,42,845.80
2007,08,05,12,43,844.30
2007,08,05,12,44,846.10
2007,08,05,12,45,846.90
2007,08,05,12,46,846.40
2007,08,05,12,47,848.70
2007,08,05,12,48,847.00
2007,08,05,12,49,847.30
2007,08,05,12,50,849.00
2007,08,05,12,51,849.00
2007,08,05,12,52,849.00
2007,08,05,12,53,849.00
2007,08,05,12,54,849.00
2007,08,05,12,55,849.00
2007,08,05,12,56,849.00
2007,08,05,12,57,849.30
2007,08,05,12,58,851.30
2007,08,05,12,59,852.80
2007,08,05,13,00,851.20
2007,08,05,13,01,853.00
2007,08,05,13,02,853.00
2007,08,05,13,03,853.00
2007,08,05,13,04,853.20
2007,08,05,13,05,853.90
2007,08,05,13,06,853.10
2007,08,05,13,07,854.00
2007,08,05,13,08,854.00
2007,08,05,13,09,853.90
2007,08,05,13,10,853.10
2007,08,05,13,11,854.00
2007,08,05,13,12,853.80
2007,08,05,13,13,853.40
2007,08,05,13,14,855.80
2007,08,05,13,15,854.30
2007,08,05,13,16,856.00
2007,08,05,13,17,856.30
2007,08,05,13,18,857.80
2007,08,05,13,19,856.00
2007,08,05,13,20,856.00
2007,08,05,13,21,856.00
2007,08,05,13,22,856.50
2007,08,05,13,23,859.80
2007,08,05,13,24,857.80
2007,08,05,13,25,856.40
2007,08,05,13,26,859.70
2007,08,05,13,27,857.80
2007,08,05,13,28,856.30
2007,08,05,13,29,857.30
2007,08,05,13,30,854.30
2007,08,05,13,31,855.70
2007,08,05,13,32,854.20
2007,08,05,13,33,856.00
2007,08,05,13,34,856.00
2007,08,05,13,35,855.70
2007,08,05,13,36,854.20
2007,08,05,13,37,856.00
2007,08,05,13,38,856.00
2007,08,05,13,39,855.80
2007,08,05,13,40,854.00
2007,08,05,13,41,853.90
2007,08,05,13,42,853.00
2007,08,05,13,43,853.00
2007,08,05,13,44,853.00
2007,08,05,13,45,853.00
2007,08,05,13,46,853.00
2007,08,05,13,47,853.00
2007,08,05,13,48,853.00
2007,08,05,13,49,853.00
2007,08,05,13,50,852.40
2007,08,05,13,51,849.00
2007,08,05,13,52,849.00
2007,08,05,13,53,848.80
2007,08,05,13,54,847.00
2007,08,05,13,55,847.30
2007,08,05,13,56,849.00
2007,08,05,13,57,849.00
2007,08,05,13,58,848.70
2007,08,05,13,59,847.00
2007,08,05,14,00,846.90
2007,08,05,14,01,846.20
2007,08,05,14,02,846.80
2007,08,05,14,03,846.00
2007,08,05,14,04,846.00
2007,08,05,14,05,846.00
2007,08,05,14,06,845.80
2007,08,05,14,07,843.80
2007,08,05,14,08,842.00
2007,08,05,14,09,842.00
2007,08,05,14,10,842.20
2007,08,05,14,11,843.40
2007,08,05,14,12,840.00
2007,08,05,14,13,839.60
2007,08,05,14,14,837.10
2007,08,05,14,15,838.00
2007,08,05,14,16,837.90
2007,08,05,14,17,837.00
2007,08,05,14,18,837.00
2007,08,05,14,19,836.80
2007,08,05,14,20,835.00
2007,08,05,14,21,834.80
2007,08,05,14,22,832.80
2007,08,05,14,23,831.00
2007,08,05,14,24,830.90
2007,08,05,14,25,830.00
2007,08,05,14,26,829.80
2007,08,05,14,27,827.70
2007,08,05,14,28,826.20
2007,08,05,14,29,827.50
2007,08,05,14,30,823.90
2007,08,05,14,31,823.10
2007,08,05,14,32,823.90
2007,08,05,14,33,823.00
2007,08,05,14,34,823.00
2007,08,05,14,35,822.50
2007,08,05,14,36,819.00
2007,08,05,14,37,818.70
2007,08,05,14,38,817.00
2007,08,05,14,39,817.00
2007,08,05,14,40,817.00
2007,08,05,14,41,816.90
2007,08,05,14,42,815.80
2007,08,05,14,43,814.00
2007,08,05,14,44,813.80
2007,08,05,14,45,811.60
2007,08,05,14,46,809.00
2007,08,05,14,47,809.00
2007,08,05,14,48,808.80
2007,08,05,14,49,807.00
2007,08,05,14,50,807.00
2007,08,05,14,51,806.60
2007,08,05,14,52,803.00
2007,08,05,14,53,802.90
2007,08,05,14,54,801.80
2007,08,05,14,55,800.00
2007,08,05,14,56,799.80
2007,08,05,14,57,797.80
2007,08,05,14,58,795.90
2007,08,05,14,59,795.00
2007,08,05,15,00,794.80
2007,08,05,15,01,792.80
2007,08,05,15,02,791.20
2007,08,05,15,03,792.40
2007,08,05,15,04,789.00
2007,08,05,15,05,788.90
2007,08,05,15,06,787.80
2007,08,05,15,07,785.80
2007,08,05,15,08,783.70
2007,08,05,15,09,781.80
2007,08,05,15,10,780.00
2007,08,05,15,11,779.90
2007,08,05,15,12,778.80
2007,08,05,15,13,777.00
2007,08,05,15,14,776.40
2007,08,05,15,15,773.20
2007,08,05,15,16,774.70
2007,08,05,15,17,772.00
2007,08,05,15,18,772.00
2007,08,05,15,19,771.60
2007,08,05,15,20,767.80
2007,08,05,15,21,765.70
2007,08,05,15,22,763.00
2007,08,05,15,23,762.80
2007,08,05,15,24,760.70
2007,08,05,15,25,758.10
2007,08,05,15,26,758.90
2007,08,05,15,27,757.60
2007,08,05,15,28,753.80
2007,08,05,15,29,751.90
2007,08,05,15,30,751.00
2007,08,05,15,31,750.80
2007,08,05,15,32,748.80
2007,08,05,15,33,747.00
2007,08,05,15,34,746.80
2007,08,05,15,35,744.90
2007,08,05,15,36,743.80
2007,08,05,15,37,741.60
2007,08,05,15,38,738.00
2007,08,05,15,39,738.00
2007,08,05,15,40,737.50
2007,08,05,15,41,732.80
2007,08,05,15,42,731.00
2007,08,05,15,43,730.80
2007,08,05,15,44,728.90
2007,08,05,15,45,727.80
2007,08,05,15,46,725.80
2007,08,05,15,47,723.80
2007,08,05,15,48,721.90
2007,08,05,15,49,721.10
2007,08,05,15,50,721.90
2007,08,05,15,51,721.80
2007,08,05,15,52,728.00
2007,08,05,15,53,728.00
2007,08,05,15,54,726.40
2007,08,05,15,55,711.50
2007,08,05,15,56,706.10
2007,08,05,15,57,698.70
2007,08,05,15,58,704.10
2007,08,05,15,59,696.00
2007,08,05,16,00,695.80
2007,08,05,16,01,694.20
2007,08,05,16,02,695.80
2007,08,05,16,03,694.20
2007,08,05,16,04,695.40
2007,08,05,16,05,691.20
2007,08,05,16,06,693.00
2007,08,05,16,07,693.00
2007,08,05,16,08,692.40
2007,08,05,16,09,686.60
2007,08,05,16,10,683.60
2007,08,05,16,11,680.00
2007,08,05,16,12,679.60
2007,08,05,16,13,676.80
2007,08,05,16,14,674.80
2007,08,05,16,15,672.70
2007,08,05,16,16,671.00
2007,08,05,16,17,670.40
2007,08,05,16,18,665.80
2007,08,05,16,19,664.00
2007,08,05,16,20,663.50
2007,08,05,16,21,658.80
2007,08,05,16,22,656.90
2007,08,05,16,23,656.00
2007,08,05,16,24,656.00
2007,08,05,16,25,655.30
2007,08,05,16,26,650.00
2007,08,05,16,27,649.70
2007,08,05,16,28,646.80
2007,08,05,16,29,644.80
2007,08,05,16,30,642.90
2007,08,05,16,31,641.80
2007,08,05,16,32,639.80
2007,08,05,16,33,637.60
2007,08,05,16,34,634.80
2007,08,05,16,35,632.80
2007,08,05,16,36,630.80
2007,08,05,16,37,628.60
2007,08,05,16,38,625.80
2007,08,05,16,39,623.60
2007,08,05,16,40,620.80
2007,08,05,16,41,619.00
2007,08,05,16,42,618.50
2007,08,05,16,43,614.60
2007,08,05,16,44,611.80
2007,08,05,16,45,609.80
2007,08,05,16,46,607.60
2007,08,05,16,47,604.80
2007,08,05,16,48,602.80
2007,08,05,16,49,600.80
2007,08,05,16,50,598.60
2007,08,05,16,51,595.60
2007,08,05,16,52,592.00
2007,08,05,16,53,591.60
2007,08,05,16,54,588.60
2007,08,05,16,55,584.90
2007,08,05,16,56,583.30
2007,08,05,16,57,578.00
2007,08,05,16,58,577.70
2007,08,05,16,59,575.00
2007,08,05,17,00,574.30
2007,08,05,17,01,570.90
2007,08,05,17,02,569.80
2007,08,05,17,03,567.60
2007,08,05,17,04,563.90
2007,08,05,17,05,562.80
2007,08,05,17,06,560.60
2007,08,05,17,07,556.80
2007,08,05,17,08,554.70
2007,08,05,17,09,551.80
2007,08,05,17,10,549.60
2007,08,05,17,11,546.80
2007,08,05,17,12,544.80
2007,08,05,17,13,542.80
2007,08,05,17,14,540.70
2007,08,05,17,15,537.80
2007,08,05,17,16,535.60
2007,08,05,17,17,532.80
2007,08,05,17,18,531.00
2007,08,05,17,19,530.40
2007,08,05,17,20,525.60
2007,08,05,17,21,521.80
2007,08,05,17,22,520.00
2007,08,05,17,23,519.40
2007,08,05,17,24,514.60
2007,08,05,17,25,511.80
2007,08,05,17,26,509.60
2007,08,05,17,27,505.70
2007,08,05,17,28,502.30
2007,08,05,17,29,497.00
2007,08,05,17,30,496.90
2007,08,05,17,31,495.50
2007,08,05,17,32,491.60
2007,08,05,17,33,488.80
2007,08,05,17,34,486.80
2007,08,05,17,35,484.80
2007,08,05,17,36,482.60
2007,08,05,17,37,479.60
2007,08,05,17,38,475.90
2007,08,05,17,39,474.50
2007,08,05,17,40,470.80
2007,08,05,17,41,468.70
2007,08,05,17,42,465.80
2007,08,05,17,43,463.80
2007,08,05,17,44,461.70
2007,08,05,17,45,458.80
2007,08,05,17,46,456.60
2007,08,05,17,47,453.80
2007,08,05,17,48,451.80
2007,08,05,17,49,449.80
2007,08,05,17,50,447.70
2007,08,05,17,51,444.80
2007,08,05,17,52,442.50
2007,08,05,17,53,438.90
2007,08,05,17,54,437.50